sat.trackr.live / text

‹ back to catalog

STARLINK-37598

NORAD 69357 · 2026-123E

PAYLOAD ACTIVE UNKNOWN

§ Identity

Operator
Country
US
Launch date
2026-06-04
Launch site
AFETR
Launch vehicle
Mass (kg)
RCS (m²)

Purposes: comms

External: N2YO · Heavens-Above · Gunter

§ Orbital elements

Epoch: 2026-09-20T02:30:07.988832Z

Period
93.85 min
Inclination
53.1574°
Eccentricity
0.0001122
Mean motion
15.34405989 rev/d
Perigee alt
461.9 km
Apogee alt
463.5 km
Semi-major
6,840.8 km
B*
5.7266e-4
RAAN
143.2578°
Arg perigee
80.5778°
Mean anomaly
279.5351°
Rev number
1,681

§ Raw data

STARLINK-375981 69357U 26123E   26263.10425913  .00019025  00000+0  57266-3 0  99932 69357  53.1574 143.2578 0001122  80.5778 279.5351 15.34405989 16814

JSON: /api/v1/satellites/69357 · /tle

For live sub-satellite position, see the globe view (requires WebGL).

§ Visibility from observer

Set your observer location to see the next 7 days of passes ≥ 10°. The values pass through the URL so the page stays shareable.

No JS? Fill the form by hand. The geolocation button needs JavaScript.